2023-077D

Last updated on Fri Jun 02 2023 00:02:04 GMT+0000 (Coordinated Universal Time)

1 56764U 23077D 23151.71227397 .09036967 71145-5 56789-2 0 9997 2 56764 41.3170 256.0327 0154307 125.5502 2.5428 15.95806812119255

Satellite not in orbit